contact:dominique.lefevre@mio.osupytheas.fr, maurice.libes@osupytheas.fr, didier.mallarino@osupytheas.fr
Project:EMSO http://www.emso-fr.org/EMSO-France
Depth: 2436.0 m
Title:EMSO Ligure Ouest : Data MII capteur AQUADOPP
Date,Latitude,Longitude,X_East,Y_North,Z_Up,Amplitude_X,Amplitude_Y,Amplitude_Z,Batterie,SoundSpeed,Heading,Pitch,Roll,Pressure,TIS,Speed,Direction
, degrees North, degrees East, m.s-1, m.s-1,m.s-1, 1, 1, 1, Volt, m.s-1, degree, degree, degree, dbar, degree_C, m.s-1, degree
2022-10-22T00:04:03,42.805,6.029,-0.017,-0.011,0.014,103.0,103.0,101.0,13.4,1505.2,318.2,-0.7,1.8,2471.077,13.29,0.02,237.1
2022-10-22T00:07:03,42.805,6.029,-0.011,-0.017,0.002,103.0,103.0,102.0,13.4,1505.2,335.0,-0.8,1.8,2471.074,13.29,0.02,212.9
2022-10-22T00:10:03,42.805,6.029,-0.021,-0.032,-0.016,105.0,102.0,102.0,13.4,1505.2,327.8,-0.8,1.8,2471.075,13.29,0.038,213.3
2022-10-22T00:13:03,42.805,6.029,-0.028,-0.016,0.002,104.0,103.0,102.0,13.4,1505.2,332.5,-0.8,1.8,2471.047,13.29,0.032,240.3
2022-10-22T00:16:03,42.805,6.029,-0.013,-0.023,-0.005,104.0,103.0,101.0,13.4,1505.2,323.5,-0.8,1.8,2471.031,13.29,0.026,209.5
2022-10-22T00:19:03,42.805,6.029,-0.014,-0.014,-0.016,104.0,103.0,102.0,13.4,1505.2,333.4,-0.7,1.8,2471.054,13.29,0.019,225.0
2022-10-22T00:22:03,42.805,6.029,-0.001,-0.045,-0.008,103.0,102.0,102.0,13.3,1505.2,326.4,-0.8,1.8,2471.07,13.29,0.045,181.3
2022-10-22T00:25:03,42.805,6.029,-0.005,-0.025,-0.003,103.0,103.0,102.0,13.3,1505.2,328.4,-0.8,1.8,2471.046,13.29,0.025,191.3
2022-10-22T00:28:03,42.805,6.029,-0.007,-0.036,0.008,104.0,103.0,102.0,13.4,1505.2,317.6,-0.7,1.8,2471.043,13.29,0.036,191.0
2022-10-22T00:31:03,42.805,6.029,-0.002,-0.033,0.012,105.0,103.0,101.0,13.4,1505.2,318.7,-0.7,1.8,2471.053,13.29,0.033,183.5
2022-10-22T00:34:03,42.805,6.029,-0.016,-0.021,-0.031,104.0,104.0,101.0,13.3,1505.2,324.2,-0.8,1.8,2471.05,13.29,0.026,217.3
2022-10-22T00:37:03,42.805,6.029,-0.022,-0.032,0.001,102.0,103.0,102.0,13.3,1505.2,321.8,-0.8,1.8,2471.05,13.29,0.038,214.5
2022-10-22T00:40:03,42.805,6.029,0.003,-0.028,0.001,103.0,103.0,102.0,13.3,1505.2,327.7,-0.8,1.8,2471.019,13.29,0.028,173.9
2022-10-22T00:43:03,42.805,6.029,0.004,-0.023,0.023,104.0,103.0,101.0,13.4,1505.2,325.2,-0.7,1.8,2471.015,13.29,0.023,170.1
2022-10-22T00:46:03,42.805,6.029,-0.03,-0.025,-0.019,104.0,103.0,101.0,13.3,1505.2,325.2,-0.7,1.8,2471.046,13.29,0.039,230.2
2022-10-22T00:49:03,42.805,6.029,-0.033,-0.034,-0.014,103.0,103.0,101.0,13.4,1505.2,325.9,-0.8,1.8,2471.034,13.29,0.047,224.1
2022-10-22T00:52:03,42.805,6.029,-0.007,-0.027,0.009,103.0,103.0,101.0,13.3,1505.2,334.0,-0.8,1.8,2471.058,13.29,0.027,194.5
2022-10-22T00:55:03,42.805,6.029,-0.017,-0.019,-0.005,104.0,103.0,102.0,13.4,1505.2,323.5,-0.8,1.8,2470.986,13.29,0.025,221.8
2022-10-22T00:58:03,42.805,6.029,-0.034,-0.026,0.006,103.0,103.0,101.0,13.4,1505.2,328.7,-0.7,1.8,2471.041,13.29,0.042,232.6
2022-10-22T01:04:03,42.805,6.029,-0.001,-0.029,0.008,105.0,104.0,103.0,13.3,1505.2,321.6,-0.8,1.8,2471.046,13.29,0.029,182.0
2022-10-22T01:07:03,42.805,6.029,-0.013,-0.022,0.006,104.0,102.0,102.0,13.4,1505.2,316.3,-0.8,1.8,2471.061,13.29,0.025,210.6
2022-10-22T01:10:03,42.805,6.029,-0.016,-0.013,0.021,103.0,103.0,102.0,13.4,1505.2,331.7,-0.7,1.8,2471.078,13.29,0.02,230.9
2022-10-22T01:13:03,42.805,6.029,-0.012,-0.009,-0.018,104.0,103.0,101.0,13.4,1505.2,320.2,-0.8,1.8,2471.067,13.29,0.015,233.1
2022-10-22T01:16:03,42.805,6.029,0.001,-0.014,-0.002,103.0,104.0,101.0,13.4,1505.2,325.5,-0.8,1.8,2471.074,13.29,0.014,175.9
2022-10-22T01:19:03,42.805,6.029,-0.047,-0.02,-0.038,103.0,104.0,103.0,13.4,1505.2,330.8,-0.8,1.8,2471.038,13.29,0.051,247.0
2022-10-22T01:22:03,42.805,6.029,-0.01,-0.008,-0.004,104.0,103.0,102.0,13.4,1505.2,331.8,-0.7,1.8,2471.075,13.29,0.012,231.3
2022-10-22T01:25:03,42.805,6.029,-0.016,-0.008,0.039,103.0,103.0,102.0,13.3,1505.2,321.5,-0.7,1.8,2471.04,13.29,0.017,243.4
2022-10-22T01:28:03,42.805,6.029,0.004,0.0,-0.011,103.0,104.0,101.0,13.4,1505.2,326.8,-0.8,1.8,2471.048,13.29,0.004,90.0
2022-10-22T01:31:03,42.805,6.029,-0.006,-0.009,0.003,103.0,104.0,102.0,13.3,1505.2,325.9,-0.8,1.8,2471.084,13.29,0.01,213.7
2022-10-22T01:34:03,42.805,6.029,-0.001,0.007,0.025,104.0,104.0,102.0,13.3,1505.2,330.3,-0.7,1.8,2471.039,13.29,0.007,351.9
2022-10-22T01:37:03,42.805,6.029,-0.009,-0.019,0.001,102.0,105.0,102.0,13.4,1505.2,334.0,-0.7,1.8,2471.059,13.29,0.021,205.3
2022-10-22T01:40:03,42.805,6.029,-0.022,-0.02,-0.007,103.0,102.0,102.0,13.4,1505.2,322.7,-0.8,1.8,2471.066,13.29,0.029,227.7
2022-10-22T01:43:03,42.805,6.029,-0.031,-0.011,0.024,103.0,104.0,102.0,13.4,1505.2,334.3,-0.8,1.8,2471.066,13.29,0.032,250.5
2022-10-22T01:46:03,42.805,6.029,0.001,-0.021,-0.007,104.0,103.0,101.0,13.4,1505.2,329.4,-0.8,1.8,2471.044,13.29,0.021,177.3
2022-10-22T01:49:03,42.805,6.029,-0.017,-0.007,-0.019,104.0,103.0,102.0,13.4,1505.2,325.7,-0.7,1.8,2471.071,13.29,0.018,247.6
2022-10-22T01:52:03,42.805,6.029,-0.024,-0.019,-0.011,105.0,103.0,102.0,13.4,1505.2,326.6,-0.8,1.8,2471.056,13.29,0.03,231.6
2022-10-22T01:55:03,42.805,6.029,-0.009,-0.013,0.016,103.0,103.0,102.0,13.4,1505.2,329.3,-0.8,1.8,2471.037,13.29,0.015,214.7
2022-10-22T01:58:03,42.805,6.029,-0.025,-0.001,-0.012,104.0,103.0,101.0,13.4,1505.2,322.6,-0.8,1.8,2471.044,13.29,0.025,267.7
2022-10-22T02:04:02,42.805,6.029,-0.024,-0.005,0.002,104.0,103.0,101.0,13.4,1505.2,334.3,-0.8,1.9,2471.08,13.29,0.024,258.2
2022-10-22T02:07:03,42.805,6.029,-0.033,-0.01,0.001,104.0,103.0,103.0,13.4,1505.2,327.3,-0.8,1.8,2471.116,13.29,0.034,253.1
2022-10-22T02:10:03,42.805,6.029,-0.002,-0.033,-0.003,104.0,103.0,101.0,13.4,1505.2,324.4,-0.8,1.8,2471.095,13.29,0.033,183.5
2022-10-22T02:13:03,42.805,6.029,-0.002,0.008,-0.019,104.0,105.0,102.0,13.4,1505.2,327.7,-0.8,1.8,2471.095,13.29,0.008,346.0
2022-10-22T02:16:03,42.805,6.029,-0.04,-0.006,0.0,105.0,105.0,101.0,13.3,1505.2,335.6,-0.8,1.8,2471.105,13.29,0.04,261.5
2022-10-22T02:19:03,42.805,6.029,-0.024,-0.016,0.022,104.0,104.0,101.0,13.4,1505.2,320.1,-0.7,1.8,2471.083,13.29,0.028,236.3
2022-10-22T02:22:03,42.805,6.029,-0.033,-0.027,-0.031,104.0,104.0,101.0,13.3,1505.2,325.1,-0.7,1.8,2471.093,13.29,0.042,230.7
2022-10-22T02:25:03,42.805,6.029,0.0,-0.009,0.005,104.0,104.0,102.0,13.4,1505.2,327.3,-0.8,1.8,2471.055,13.29,0.009,180.0
2022-10-22T02:28:03,42.805,6.029,0.001,-0.005,0.002,104.0,103.0,102.0,13.4,1505.2,327.3,-0.8,1.8,2471.056,13.29,0.005,168.7
2022-10-22T02:31:03,42.805,6.029,-0.02,0.0,0.012,104.0,103.0,102.0,13.4,1505.2,332.8,-0.7,1.8,2471.079,13.29,0.02,270.0
2022-10-22T02:34:03,42.805,6.029,-0.019,-0.018,-0.013,104.0,102.0,102.0,13.3,1505.2,322.1,-0.7,1.8,2471.084,13.29,0.026,226.5
2022-10-22T02:37:03,42.805,6.029,-0.013,-0.001,0.019,104.0,102.0,103.0,13.4,1505.2,323.9,-0.7,1.8,2471.05,13.29,0.013,265.6
2022-10-22T02:40:03,42.805,6.029,-0.041,-0.025,0.016,103.0,104.0,103.0,13.4,1505.2,315.4,-0.8,1.8,2471.122,13.29,0.048,238.6
2022-10-22T02:43:03,42.805,6.029,-0.005,-0.007,-0.016,103.0,105.0,101.0,13.3,1505.2,327.6,-0.8,1.8,2471.103,13.29,0.008,215.5
2022-10-22T02:46:03,42.805,6.029,-0.01,-0.019,0.016,103.0,103.0,102.0,13.4,1505.2,323.1,-0.7,1.8,2471.069,13.29,0.021,207.8
2022-10-22T02:49:03,42.805,6.029,-0.039,-0.024,-0.009,103.0,104.0,102.0,13.4,1505.2,329.7,-0.8,1.8,2471.082,13.29,0.045,238.4
2022-10-22T02:52:03,42.805,6.029,-0.016,0.002,0.001,105.0,102.0,101.0,13.4,1505.2,323.8,-0.7,1.9,2471.021,13.29,0.016,277.1
2022-10-22T02:55:03,42.805,6.029,-0.048,0.005,0.025,104.0,103.0,101.0,13.4,1505.2,334.3,-0.8,1.8,2471.078,13.29,0.048,275.9
2022-10-22T02:58:03,42.805,6.029,-0.029,0.006,0.024,103.0,103.0,101.0,13.4,1505.2,333.4,-0.8,1.8,2471.091,13.29,0.029,281.7
2022-10-22T03:04:03,42.805,6.029,-0.01,-0.011,0.019,103.0,104.0,102.0,13.4,1505.2,320.8,-0.8,1.8,2471.163,13.29,0.014,222.3
2022-10-22T03:07:03,42.805,6.029,-0.033,-0.017,-0.001,104.0,104.0,102.0,13.4,1505.2,329.7,-0.7,1.8,2471.159,13.29,0.037,242.7
2022-10-22T03:10:03,42.805,6.029,-0.045,-0.007,-0.027,105.0,102.0,104.0,13.4,1505.2,324.0,-0.8,1.8,2471.138,13.29,0.045,261.2
2022-10-22T03:13:03,42.805,6.029,-0.032,-0.014,0.007,103.0,103.0,101.0,13.4,1505.2,327.5,-0.8,1.8,2471.147,13.29,0.034,246.4
2022-10-22T03:16:03,42.805,6.029,-0.036,-0.002,-0.027,104.0,103.0,102.0,13.4,1505.2,324.3,-0.8,1.8,2471.133,13.29,0.036,266.8
2022-10-22T03:19:03,42.805,6.029,-0.035,0.007,0.018,104.0,103.0,102.0,13.4,1505.2,333.1,-0.7,1.8,2471.124,13.29,0.035,281.3
2022-10-22T03:22:03,42.805,6.029,-0.024,0.008,0.016,104.0,103.0,102.0,13.4,1505.2,330.8,-0.7,1.9,2471.151,13.29,0.025,288.4
2022-10-22T03:25:03,42.805,6.029,-0.035,0.013,-0.044,103.0,103.0,102.0,13.4,1505.2,321.3,-0.8,1.8,2471.15,13.29,0.037,290.4
2022-10-22T03:28:03,42.805,6.029,-0.018,0.012,0.025,103.0,103.0,102.0,13.3,1505.2,326.9,-0.8,1.8,2471.122,13.29,0.021,303.7
2022-10-22T03:31:03,42.805,6.029,-0.01,0.006,0.012,104.0,105.0,102.0,13.3,1505.2,318.0,-0.8,1.8,2471.132,13.29,0.011,301.0
2022-10-22T03:34:03,42.805,6.029,-0.024,-0.018,-0.004,105.0,105.0,102.0,13.4,1505.2,332.2,-0.7,1.8,2471.125,13.29,0.03,233.1
2022-10-22T03:37:03,42.805,6.029,-0.014,0.013,0.009,104.0,104.0,102.0,13.4,1505.2,327.3,-0.8,1.8,2471.148,13.29,0.019,312.9
2022-10-22T03:40:03,42.805,6.029,-0.008,0.006,0.048,105.0,105.0,101.0,13.3,1505.2,318.2,-0.7,1.8,2471.138,13.29,0.01,306.9
2022-10-22T03:43:03,42.805,6.029,-0.036,0.007,-0.003,104.0,103.0,103.0,13.4,1505.2,318.4,-0.8,1.8,2471.102,13.29,0.036,281.0
2022-10-22T03:46:03,42.805,6.029,-0.031,0.007,0.008,105.0,104.0,102.0,13.3,1505.2,333.4,-0.7,1.8,2471.138,13.29,0.031,282.7
2022-10-22T03:49:03,42.805,6.029,0.001,0.005,0.03,103.0,105.0,102.0,13.4,1505.2,317.2,-0.8,1.8,2471.135,13.29,0.005,11.3
2022-10-22T03:52:03,42.805,6.029,-0.021,-0.002,0.019,105.0,103.0,103.0,13.3,1505.2,326.1,-0.8,1.8,2471.133,13.29,0.021,264.6
2022-10-22T03:55:03,42.805,6.029,-0.035,0.009,-0.006,104.0,104.0,102.0,13.4,1505.2,327.5,-0.7,1.8,2471.133,13.29,0.036,284.4
2022-10-22T03:58:03,42.805,6.029,-0.023,-0.02,-0.009,102.0,104.0,101.0,13.4,1505.2,321.9,-0.8,1.8,2471.123,13.29,0.03,229.0
2022-10-22T04:04:03,42.805,6.029,-0.055,0.004,-0.005,104.0,103.0,102.0,13.4,1505.2,325.2,-0.8,1.8,2471.18,13.29,0.055,274.2
2022-10-22T04:07:03,42.805,6.029,-0.013,0.017,0.005,104.0,103.0,103.0,13.4,1505.2,331.6,-0.7,1.8,2471.187,13.29,0.021,322.6
2022-10-22T04:10:03,42.805,6.029,-0.019,0.011,0.034,104.0,103.0,102.0,13.3,1505.2,327.3,-0.8,1.8,2471.183,13.29,0.021,300.1
2022-10-22T04:13:03,42.805,6.029,-0.011,0.022,0.005,103.0,103.0,101.0,13.4,1505.2,330.8,-0.7,1.8,2471.162,13.29,0.024,333.4
2022-10-22T04:16:03,42.805,6.029,-0.031,0.006,0.007,103.0,104.0,101.0,13.4,1505.2,331.1,-0.7,1.8,2471.196,13.29,0.031,281.0
2022-10-22T04:19:03,42.805,6.029,-0.031,-0.007,0.016,103.0,104.0,102.0,13.3,1505.2,326.3,-0.8,1.8,2471.112,13.29,0.031,257.3
2022-10-22T04:22:03,42.805,6.029,-0.01,-0.012,0.051,102.0,103.0,102.0,13.3,1505.2,330.3,-0.8,1.8,2471.135,13.29,0.015,219.8
2022-10-22T04:25:03,42.805,6.029,-0.056,0.011,0.011,103.0,104.0,101.0,13.4,1505.2,322.5,-0.8,1.8,2471.175,13.29,0.057,281.1
2022-10-22T04:28:03,42.805,6.029,-0.058,0.009,0.003,104.0,103.0,102.0,13.4,1505.2,318.0,-0.8,1.8,2471.13,13.29,0.058,278.8
2022-10-22T04:31:03,42.805,6.029,-0.022,0.012,-0.005,106.0,104.0,101.0,13.4,1505.2,331.7,-0.8,1.8,2471.134,13.29,0.025,298.6
2022-10-22T04:34:03,42.805,6.029,-0.046,0.021,0.001,104.0,103.0,103.0,13.3,1505.2,328.0,-0.7,1.8,2471.15,13.29,0.05,294.5
2022-10-22T04:37:03,42.805,6.029,-0.025,0.008,0.007,104.0,104.0,101.0,13.4,1505.2,331.1,-0.8,1.8,2471.151,13.29,0.026,287.7
2022-10-22T04:40:03,42.805,6.029,-0.048,0.002,0.003,103.0,105.0,102.0,13.3,1505.2,321.2,-0.7,1.8,2471.154,13.29,0.048,272.4
2022-10-22T04:43:03,42.805,6.029,-0.082,0.03,0.019,104.0,103.0,101.0,13.4,1505.2,319.6,-0.8,1.8,2471.161,13.29,0.087,290.1
2022-10-22T04:46:03,42.805,6.029,-0.037,-0.01,0.019,103.0,104.0,101.0,13.3,1505.2,325.9,-0.8,1.8,2471.135,13.29,0.038,254.9
2022-10-22T04:49:03,42.805,6.029,-0.027,0.019,0.01,102.0,104.0,102.0,13.4,1505.2,331.3,-0.8,1.8,2471.142,13.29,0.033,305.1
2022-10-22T04:52:03,42.805,6.029,-0.034,0.006,0.015,104.0,104.0,101.0,13.3,1505.2,322.3,-0.8,1.8,2471.142,13.29,0.034,280.0
2022-10-22T04:55:03,42.805,6.029,-0.038,0.033,0.045,103.0,103.0,102.0,13.4,1505.2,321.1,-0.7,1.9,2471.136,13.29,0.05,311.0
2022-10-22T04:58:03,42.805,6.029,-0.041,0.006,-0.014,103.0,103.0,103.0,13.4,1505.2,323.8,-0.8,1.8,2471.173,13.29,0.041,278.3
2022-10-22T05:04:03,42.805,6.029,-0.032,0.004,0.015,104.0,103.0,102.0,13.4,1505.2,333.4,-0.8,1.8,2471.203,13.29,0.032,277.1
2022-10-22T05:07:03,42.805,6.029,-0.041,0.019,0.018,104.0,103.0,102.0,13.3,1505.2,325.3,-0.8,1.8,2471.182,13.29,0.045,294.9
2022-10-22T05:10:03,42.805,6.029,-0.032,0.032,0.037,103.0,104.0,102.0,13.3,1505.2,333.7,-0.8,1.8,2471.184,13.29,0.045,315.0
2022-10-22T05:13:03,42.805,6.029,-0.022,0.021,0.037,104.0,103.0,102.0,13.3,1505.2,332.1,-0.7,1.8,2471.189,13.29,0.03,313.7
2022-10-22T05:16:03,42.805,6.029,-0.039,0.003,0.008,103.0,104.0,100.0,13.3,1505.2,322.6,-0.8,1.8,2471.204,13.29,0.039,274.4
2022-10-22T05:19:03,42.805,6.029,-0.039,0.03,0.036,102.0,104.0,102.0,13.4,1505.2,323.5,-0.8,1.8,2471.185,13.29,0.049,307.6
2022-10-22T05:22:03,42.805,6.029,-0.045,0.037,-0.015,104.0,104.0,100.0,13.3,1505.2,335.3,-0.8,1.8,2471.193,13.29,0.058,309.4
2022-10-22T05:25:03,42.805,6.029,-0.034,0.022,0.012,102.0,102.0,102.0,13.4,1505.2,331.0,-0.8,1.8,2471.184,13.29,0.04,302.9
2022-10-22T05:28:03,42.805,6.029,-0.059,0.022,0.038,104.0,103.0,102.0,13.4,1505.2,323.6,-0.8,1.8,2471.105,13.29,0.062,290.4
2022-10-22T05:31:03,42.805,6.029,-0.058,0.004,-0.001,104.0,104.0,101.0,13.4,1505.2,318.1,-0.8,1.8,2471.152,13.29,0.058,273.9
2022-10-22T05:34:03,42.805,6.029,-0.031,0.023,0.034,103.0,103.0,101.0,13.4,1505.2,333.1,-0.7,1.9,2471.135,13.29,0.038,306.6
2022-10-22T05:37:03,42.805,6.029,-0.039,0.006,0.013,103.0,104.0,102.0,13.4,1505.2,319.7,-0.7,1.8,2471.121,13.29,0.039,278.7
2022-10-22T05:40:03,42.805,6.029,-0.045,0.015,0.009,104.0,103.0,102.0,13.3,1505.2,331.8,-0.7,1.8,2471.161,13.29,0.047,288.4
2022-10-22T05:43:03,42.805,6.029,-0.041,0.002,0.032,103.0,103.0,102.0,13.4,1505.2,327.1,-0.7,1.8,2471.171,13.29,0.041,272.8
2022-10-22T05:46:03,42.805,6.029,-0.051,0.01,0.032,104.0,103.0,102.0,13.3,1505.2,334.0,-0.8,1.8,2471.136,13.29,0.051,281.1
2022-10-22T05:49:03,42.805,6.029,-0.05,0.042,0.023,103.0,104.0,102.0,13.4,1505.2,330.8,-0.8,1.8,2471.156,13.29,0.065,310.0
2022-10-22T05:52:03,42.805,6.029,-0.051,-0.002,0.042,104.0,103.0,100.0,13.3,1505.2,320.5,-0.7,1.8,2471.153,13.29,0.051,267.8
2022-10-22T05:55:03,42.805,6.029,-0.043,0.011,0.019,103.0,104.0,102.0,13.4,1505.2,326.7,-0.7,1.8,2471.124,13.29,0.044,284.3
2022-10-22T05:58:03,42.805,6.029,-0.04,0.014,0.008,102.0,103.0,101.0,13.4,1505.2,317.1,-0.8,1.8,2471.163,13.29,0.042,289.3
2022-10-22T06:04:03,42.805,6.029,-0.042,0.018,0.0,102.0,103.0,102.0,13.3,1505.2,322.1,-0.8,1.8,2471.181,13.29,0.045,293.2
2022-10-22T06:07:03,42.805,6.029,-0.069,0.001,-0.033,104.0,103.0,101.0,13.3,1505.2,318.3,-0.8,1.8,2471.217,13.29,0.069,270.8
2022-10-22T06:10:03,42.805,6.029,-0.035,0.003,0.043,102.0,103.0,101.0,13.3,1505.2,322.7,-0.7,1.8,2471.187,13.29,0.035,274.9
2022-10-22T06:13:03,42.805,6.029,-0.038,0.015,0.033,103.0,103.0,101.0,13.4,1505.2,331.6,-0.8,1.8,2471.167,13.29,0.04,291.5
2022-10-22T06:16:03,42.805,6.029,-0.039,0.003,0.028,103.0,103.0,102.0,13.4,1505.2,318.4,-0.7,1.8,2471.161,13.29,0.039,274.4
2022-10-22T06:19:03,42.805,6.029,-0.036,0.007,0.004,110.0,104.0,103.0,13.4,1505.2,331.4,-0.8,1.8,2471.134,13.29,0.036,281.0
2022-10-22T06:22:03,42.805,6.029,-0.046,0.007,0.026,102.0,103.0,103.0,13.4,1505.2,332.5,-0.7,1.8,2471.148,13.29,0.046,278.7
2022-10-22T06:25:03,42.805,6.029,-0.02,-0.011,0.011,103.0,104.0,102.0,13.3,1505.2,322.3,-0.8,1.8,2471.14,13.29,0.022,241.2
2022-10-22T06:28:03,42.805,6.029,-0.056,0.003,0.004,103.0,103.0,101.0,13.3,1505.2,320.1,-0.8,1.8,2471.107,13.29,0.056,273.1
2022-10-22T06:31:03,42.805,6.029,-0.062,0.011,0.013,103.0,103.0,101.0,13.4,1505.2,332.1,-0.8,1.8,2471.185,13.29,0.062,280.1
2022-10-22T06:34:03,42.805,6.029,-0.03,0.008,0.013,104.0,104.0,101.0,13.4,1505.2,327.4,-0.8,1.8,2471.171,13.29,0.031,284.9
2022-10-22T06:37:03,42.805,6.029,-0.057,0.0,-0.008,103.0,103.0,101.0,13.4,1505.2,321.8,-0.7,1.8,2471.137,13.29,0.057,270.0
2022-10-22T06:40:03,42.805,6.029,-0.035,-0.005,0.003,103.0,103.0,101.0,13.3,1505.2,318.1,-0.7,1.8,2471.143,13.29,0.035,261.9
2022-10-22T06:43:03,42.805,6.029,-0.042,0.025,-0.003,102.0,104.0,101.0,13.4,1505.2,327.7,-0.8,1.8,2471.157,13.29,0.048,300.8
2022-10-22T06:46:03,42.805,6.029,-0.058,0.011,-0.003,102.0,103.0,101.0,13.3,1505.2,322.8,-0.8,1.8,2471.148,13.29,0.059,280.7
2022-10-22T06:49:03,42.805,6.029,-0.042,-0.01,0.011,101.0,104.0,102.0,13.3,1505.2,316.7,-0.8,1.8,2471.156,13.29,0.043,256.6
2022-10-22T06:52:03,42.805,6.029,-0.038,0.018,0.05,103.0,103.0,101.0,13.3,1505.2,323.2,-0.8,1.8,2471.147,13.29,0.042,295.3
2022-10-22T06:55:03,42.805,6.029,-0.05,0.027,0.007,103.0,103.0,102.0,13.4,1505.2,324.6,-0.8,1.8,2471.157,13.29,0.056,298.4
2022-10-22T06:58:03,42.805,6.029,-0.042,0.004,0.019,105.0,103.0,101.0,13.4,1505.2,317.1,-0.8,1.8,2471.139,13.29,0.042,275.4
2022-10-22T07:04:03,42.805,6.029,-0.049,0.002,0.013,104.0,104.0,102.0,13.4,1505.2,323.0,-0.8,1.8,2471.167,13.29,0.049,272.3
2022-10-22T07:07:03,42.805,6.029,-0.039,0.024,0.024,102.0,103.0,102.0,13.4,1505.2,332.1,-0.8,1.8,2471.168,13.29,0.045,301.6
2022-10-22T07:10:03,42.805,6.029,-0.031,-0.011,0.013,102.0,104.0,102.0,13.4,1505.2,325.0,-0.8,1.8,2471.176,13.29,0.032,250.5
2022-10-22T07:13:03,42.805,6.029,-0.037,0.007,0.013,103.0,104.0,101.0,13.4,1505.2,327.6,-0.7,1.8,2471.13,13.29,0.037,280.7
2022-10-22T07:16:03,42.805,6.029,-0.038,-0.009,-0.019,103.0,103.0,101.0,13.3,1505.2,327.1,-0.8,1.8,2471.141,13.29,0.039,256.7
2022-10-22T07:19:03,42.805,6.029,-0.04,0.002,0.01,103.0,103.0,101.0,13.4,1505.2,322.5,-0.7,1.8,2471.15,13.29,0.04,272.9
2022-10-22T07:22:03,42.805,6.029,-0.043,0.0,0.011,103.0,103.0,102.0,13.4,1505.2,323.5,-0.8,1.8,2471.132,13.29,0.043,270.0
2022-10-22T07:25:03,42.805,6.029,-0.056,-0.005,0.018,102.0,103.0,102.0,13.4,1505.2,319.5,-0.8,1.8,2471.136,13.29,0.056,264.9
2022-10-22T07:28:03,42.805,6.029,-0.013,0.029,0.025,103.0,105.0,101.0,13.4,1505.2,333.1,-0.8,1.8,2471.137,13.29,0.031,335.9
2022-10-22T07:31:03,42.805,6.029,-0.039,0.009,0.023,104.0,104.0,102.0,13.4,1505.2,322.3,-0.8,1.8,2471.127,13.29,0.04,283.0
2022-10-22T07:34:03,42.805,6.029,-0.029,0.017,0.013,104.0,103.0,102.0,13.4,1505.2,321.8,-0.7,1.8,2471.129,13.29,0.033,300.4
2022-10-22T07:37:03,42.805,6.029,-0.057,0.014,0.015,103.0,104.0,101.0,13.4,1505.2,328.0,-0.7,1.8,2471.141,13.29,0.058,283.8
2022-10-22T07:40:03,42.805,6.029,-0.049,0.004,0.018,103.0,103.0,102.0,13.4,1505.2,328.5,-0.7,1.8,2471.115,13.29,0.049,274.7
2022-10-22T07:43:03,42.805,6.029,-0.033,0.01,0.043,104.0,104.0,101.0,13.3,1505.2,319.2,-0.8,1.8,2471.113,13.29,0.034,286.9
2022-10-22T07:46:03,42.805,6.029,-0.028,0.016,-0.01,103.0,103.0,101.0,13.4,1505.2,328.2,-0.8,1.8,2471.147,13.29,0.032,299.7
2022-10-22T07:49:03,42.805,6.029,-0.033,-0.001,-0.001,103.0,103.0,101.0,13.4,1505.2,329.0,-0.8,1.8,2471.096,13.29,0.033,268.3
2022-10-22T07:52:03,42.805,6.029,-0.053,0.003,0.002,103.0,103.0,101.0,13.4,1505.2,318.3,-0.8,1.8,2471.104,13.29,0.053,273.2
2022-10-22T07:55:03,42.805,6.029,-0.028,0.002,0.01,103.0,103.0,101.0,13.3,1505.2,322.5,-0.8,1.8,2471.134,13.29,0.028,274.1
2022-10-22T07:58:03,42.805,6.029,-0.042,0.015,0.009,103.0,103.0,101.0,13.4,1505.2,319.5,-0.8,1.8,2471.125,13.29,0.044,289.6
2022-10-22T08:04:03,42.805,6.029,-0.031,0.003,0.02,103.0,103.0,101.0,13.4,1505.2,324.2,-0.8,1.8,2471.145,13.29,0.031,275.5
2022-10-22T08:07:03,42.805,6.029,-0.025,-0.005,-0.01,102.0,104.0,101.0,13.4,1505.2,320.8,-0.8,1.8,2471.175,13.29,0.025,258.7
2022-10-22T08:10:03,42.805,6.029,-0.036,0.015,0.02,103.0,101.0,102.0,13.4,1505.2,317.5,-0.8,1.8,2471.112,13.29,0.039,292.6
2022-10-22T08:13:03,42.805,6.029,-0.048,0.015,0.017,103.0,103.0,103.0,13.4,1505.2,331.7,-0.8,1.8,2471.111,13.29,0.05,287.4
2022-10-22T08:16:03,42.805,6.029,-0.034,0.0,-0.007,103.0,103.0,101.0,13.4,1505.2,327.6,-0.8,1.8,2471.13,13.29,0.034,270.0
2022-10-22T08:19:03,42.805,6.029,-0.064,-0.013,0.006,103.0,102.0,101.0,13.4,1505.2,324.1,-0.8,1.8,2471.124,13.29,0.065,258.5
2022-10-22T08:22:03,42.805,6.029,-0.023,0.002,0.028,104.0,102.0,101.0,13.3,1505.2,322.7,-0.8,1.9,2471.08,13.29,0.023,275.0
2022-10-22T08:25:03,42.805,6.029,-0.041,0.022,0.003,103.0,103.0,101.0,13.4,1505.2,321.3,-0.7,1.8,2471.095,13.29,0.046,298.2
2022-10-22T08:28:03,42.805,6.029,-0.057,0.01,0.002,103.0,103.0,101.0,13.4,1505.2,325.5,-0.8,1.8,2471.131,13.29,0.057,279.9
2022-10-22T08:31:03,42.805,6.029,-0.056,0.0,0.017,104.0,103.0,101.0,13.4,1505.2,319.3,-0.8,1.8,2471.082,13.29,0.056,270.0
2022-10-22T08:34:03,42.805,6.029,-0.043,0.018,-0.012,104.0,105.0,101.0,13.4,1505.2,326.1,-0.7,1.8,2471.098,13.29,0.046,292.7
2022-10-22T08:37:03,42.805,6.029,-0.053,-0.008,0.014,103.0,104.0,102.0,13.4,1505.2,321.6,-0.8,1.8,2471.147,13.29,0.053,261.4
2022-10-22T08:40:03,42.805,6.029,-0.044,0.018,-0.022,104.0,102.0,103.0,13.3,1505.2,332.4,-0.8,1.8,2471.088,13.29,0.047,292.2
2022-10-22T08:43:03,42.805,6.029,-0.054,0.003,0.016,103.0,105.0,101.0,13.3,1505.2,323.1,-0.7,1.8,2471.076,13.29,0.054,273.2
2022-10-22T08:46:03,42.805,6.029,-0.045,0.003,0.02,103.0,104.0,102.0,13.3,1505.2,317.1,-0.8,1.8,2471.118,13.29,0.045,273.8
2022-10-22T08:49:03,42.805,6.029,-0.043,0.021,-0.003,103.0,104.0,101.0,13.4,1505.2,329.6,-0.8,1.9,2471.079,13.29,0.047,296.0
2022-10-22T08:52:03,42.805,6.029,-0.029,0.019,0.027,104.0,104.0,102.0,13.4,1505.2,324.7,-0.8,1.8,2471.116,13.29,0.034,303.2
2022-10-22T08:55:03,42.805,6.029,-0.016,0.018,0.036,104.0,103.0,101.0,13.4,1505.2,319.6,-0.8,1.8,2471.079,13.29,0.024,318.4
2022-10-22T08:58:03,42.805,6.029,-0.068,0.02,0.033,104.0,104.0,102.0,13.4,1505.2,333.4,-0.7,1.8,2471.086,13.29,0.07,286.4
2022-10-22T10:04:02,42.805,6.029,-0.022,0.012,0.03,104.0,103.0,102.0,13.4,1505.1,332.1,-0.8,1.8,2471.547,13.27,0.025,298.6
2022-10-22T10:07:03,42.805,6.029,-0.028,0.01,0.018,103.0,102.0,102.0,13.4,1505.2,334.0,-0.8,1.8,2471.448,13.28,0.029,289.6
2022-10-22T10:10:03,42.805,6.029,-0.054,0.026,0.02,103.0,104.0,101.0,13.4,1505.2,333.1,-0.7,1.8,2471.339,13.28,0.059,295.7
2022-10-22T10:13:03,42.805,6.029,-0.062,0.03,0.028,103.0,103.0,101.0,13.4,1505.2,334.0,-0.8,1.8,2471.276,13.28,0.068,295.8
2022-10-22T10:16:03,42.805,6.029,-0.05,0.017,0.029,104.0,104.0,101.0,13.4,1505.2,325.3,-0.8,1.8,2471.171,13.28,0.052,288.8
2022-10-22T10:19:03,42.805,6.029,-0.031,0.034,0.049,102.0,105.0,101.0,13.4,1505.2,331.9,-0.7,1.8,2471.152,13.28,0.046,317.6
2022-10-22T10:22:03,42.805,6.029,-0.053,0.012,0.025,103.0,105.0,101.0,13.4,1505.2,326.7,-0.8,1.8,2471.131,13.29,0.054,282.8
2022-10-22T10:25:03,42.805,6.029,-0.051,0.03,0.051,103.0,104.0,101.0,13.3,1505.2,324.2,-0.8,1.8,2471.097,13.29,0.059,300.5
2022-10-22T10:28:03,42.805,6.029,-0.049,0.016,-0.019,103.0,104.0,100.0,13.4,1505.2,333.1,-0.7,1.8,2471.077,13.29,0.051,288.1
2022-10-22T10:31:03,42.805,6.029,-0.059,0.013,0.011,103.0,103.0,101.0,13.4,1505.2,322.6,-0.8,1.8,2471.048,13.29,0.06,282.4
2022-10-22T10:34:03,42.805,6.029,-0.056,0.026,0.001,102.0,104.0,101.0,13.4,1505.2,322.0,-0.7,1.8,2471.061,13.29,0.061,294.9
2022-10-22T10:37:03,42.805,6.029,-0.042,0.015,-0.026,103.0,104.0,100.0,13.4,1505.2,326.5,-0.8,1.8,2471.028,13.29,0.044,289.6
2022-10-22T10:40:03,42.805,6.029,-0.039,0.015,0.003,103.0,105.0,100.0,13.3,1505.2,320.1,-0.8,1.8,2471.071,13.29,0.041,291.0
2022-10-22T10:43:03,42.805,6.029,-0.055,-0.003,0.012,103.0,103.0,102.0,13.4,1505.2,318.9,-0.8,1.8,2471.025,13.29,0.055,266.9
2022-10-22T10:46:03,42.805,6.029,-0.041,0.015,0.039,104.0,103.0,102.0,13.3,1505.2,321.7,-0.7,1.8,2470.998,13.29,0.043,290.1
2022-10-22T10:49:03,42.805,6.029,-0.045,0.016,0.017,103.0,104.0,102.0,13.3,1505.2,332.8,-0.7,1.8,2471.02,13.29,0.047,289.6
2022-10-22T10:52:03,42.805,6.029,-0.061,0.031,0.023,102.0,105.0,102.0,13.4,1505.2,322.0,-0.8,1.9,2471.008,13.29,0.068,296.9
2022-10-22T10:55:03,42.805,6.029,-0.031,-0.028,-0.051,102.0,104.0,101.0,13.4,1505.2,323.6,-0.8,1.8,2471.005,13.29,0.041,227.9